Temp
19 19 18 18 16 16 16 15 16 16 16 15 15 13 12 12 12 13 13 13 13 13
20 20 18 18 17 16 17 16 16 16 15 16 15 14 12 12 12 13 13 13 13 12
20 21 19 19 18 17 17 16 16 16 15 15 14 14 12 13 12 13 13 13 13 13
19 21 19 20 18 18 17 17 16 15 15 15 13 14 13 12 12 12 12 12 13 13
19 20 19 19 19 18 17 16 16 16 15 14 13 13 13 13 12 12 12 12 12 12
17 19 19 18 18 17 16 15 15 15 15 15 13 13 13 13 12 12 12 12 12 12
14 15 17 17 16 15 15 14 14 15 15 14 13 13 13 12 12 12 12 12 12 12
10 14 15 15 15 15 14 14 14 14 13 13 13 12 12 12 12 12 12 12 12 12
5 7 11 14 13 14 14 14 13 13 13 12 12 12 12 12 12 12 12 12 12 12
2 2 2 6 11 12 12 13 12 12 12 11 11 11 12 12 12 12 11 11 11 11
1 1 1 1 1 4 6 7 8 7 7 8 7 9 11 11 11 10 10 9 10 9
0 0 0 0 -0 -1 0 -0 -0 1 3 3 5 6 8 11 10 8 6 6 6 6
0 0 -0 -0 0 -0 -1 -1 -2 -2 -1 -0 1 3 6 7 5 3 1 1 2 3
-1 -1 -1 -1 1 0 -1 -0 -2 -2 -3 -2 -1 -1 1 3 2 -0 -2 -2 -2 -2
Height
688 694 699 706 712 718 724 729 733 734 739 743 746 750 755 758 762 765 769 773 775 778
683 689 694 700 706 712 718 724 728 732 736 738 741 745 751 755 759 762 767 769 773 775
676 682 690 695 701 708 714 719 723 728 732 735 738 741 746 751 756 760 763 766 769 773
671 678 686 691 695 703 708 713 720 724 728 731 734 737 742 747 751 756 759 762 765 768
671 676 682 688 692 699 704 711 717 722 726 728 731 733 737 741 747 751 753 757 760 763
674 677 681 685 690 696 702 711 717 721 723 726 728 730 734 737 743 748 751 753 756 759
682 681 681 683 690 697 702 709 715 719 722 725 726 729 731 734 739 744 747 750 752 755
683 683 683 684 690 696 701 708 714 718 723 725 725 728 730 732 736 739 743 746 749 751
690 685 685 687 690 693 700 706 712 714 722 724 724 727 729 731 733 737 740 742 745 747
697 691 691 688 691 695 701 704 708 710 716 721 723 725 728 729 732 734 737 740 742 745
706 703 703 698 695 699 701 705 708 712 711 716 720 722 724 726 728 730 733 735 737 740
715 716 715 712 712 712 707 712 715 717 716 718 718 721 722 721 724 728 731 734 736 738
725 727 728 726 719 718 728 716 728 722 727 722 719 723 721 722 722 727 732 736 738 738
738 737 740 733 727 730 737 725 735 729 734 727 724 728 729 725 724 727 737 741 743 744
Wind_Speed
35 33 34 34 32 33 31 28 33 33 30 29 25 23 25 26 26 29 28 29 30 28
35 34 31 35 35 35 33 32 31 33 31 27 26 24 26 26 29 28 32 30 33 29
38 39 35 32 35 34 33 32 30 32 33 30 28 28 28 29 27 29 30 29 33 31
34 36 33 29 36 33 32 32 30 31 31 31 30 29 30 27 28 31 27 28 30 32
31 30 32 28 29 29 31 31 30 28 25 24 27 29 30 30 27 27 27 27 27 25
14 26 26 29 26 28 30 27 24 24 24 22 26 29 31 29 28 27 26 25 25 26
9 5 25 28 29 28 25 24 20 19 21 22 21 24 26 26 27 25 25 24 24 25
17 4 19 25 28 26 23 19 18 18 18 19 19 19 22 25 25 24 21 21 22 23
27 22 9 25 28 27 24 22 21 17 18 17 15 17 18 19 21 20 19 19 19 18
34 32 30 21 18 17 20 23 20 22 21 17 13 17 18 18 18 18 17 18 19 18
34 33 33 31 28 18 18 17 19 17 18 15 9 16 20 21 16 19 15 12 12 14
36 34 32 33 33 28 27 26 21 16 15 12 8 2 13 23 21 16 12 8 7 8
36 33 30 29 33 36 28 37 28 32 26 24 20 10 10 17 20 20 18 14 12 7
31 29 25 27 33 31 26 37 31 35 32 34 30 23 14 14 21 23 23 21 20 18
Wind_Direction
190 185 191 191 193 194 199 203 206 205 207 208 210 207 206 200 204 203 200 183 181 182
190 191 184 190 197 197 206 205 207 206 205 209 210 207 200 196 201 201 200 201 197 191
193 198 192 192 192 198 203 203 202 205 208 204 205 204 205 200 202 203 205 206 204 207
190 196 187 195 192 195 199 198 201 200 204 204 203 205 203 207 208 209 212 211 214 218
191 195 186 195 181 191 188 189 193 198 199 202 197 205 203 200 210 210 203 210 213 215
167 194 191 174 169 169 170 175 183 191 198 205 197 200 202 208 213 219 222 220 222 220
333 190 174 167 166 165 166 169 182 196 203 209 197 190 196 204 209 216 220 221 224 222
18 273 171 166 167 163 164 172 187 190 199 200 199 198 200 202 204 204 211 220 226 230
33 39 61 163 163 160 165 172 181 179 189 179 174 188 196 206 211 214 214 213 216 220
33 32 25 61 125 142 160 168 170 167 178 174 181 193 195 190 196 198 203 211 216 208
38 37 34 41 40 78 105 120 136 142 143 152 169 195 199 193 178 179 170 162 167 183
45 39 42 47 46 46 72 65 75 89 101 93 87 147 161 183 171 154 133 134 154 174
55 51 43 52 62 66 54 73 54 62 60 70 65 63 147 159 145 126 111 98 86 88
53 57 58 52 69 69 64 71 59 59 50 62 65 63 83 123 122 110 92 83 75 73